Location: New Canada
(47.1017°N, 68.5042°W)
Time: 04:05:57
(UTC+00:00)

COSMOS 1818 DEB - Pass Details

Date: 02 December 2023
Orbit: 754 x 785 km, 65.0° (Epoch: 12 November)

Event Time Altitude Azimuth Distance (km) Brightness Sun altitude
Rises 22:31:33 0° 276° (W) 3,262 ? -17.3°
Reaches altitude 10° 22:34:51 10° 297° (WNW) 2,341 ? -17.8°
Maximum altitude 22:38:16 17° 337° (NNW) 1,918 ? -18.4°
Enters shadow 22:41:41 10° 16° (NNE) 2,350 ? -18.9°
